Temperature
25 25 24 25 28 29 29 33 34 34 33 33 32 32 29 28 27 25 25 24 22 22 22 21 20 20 19 19 19 19 19 19 19 19 19 19 19 19 19 19 19 19 18 18 18 18 18 19 19
26 24 26 28 30 28 29 33 33 33 33 32 32 32 29 28 27 25 25 23 21 21 21 21 20 20 19 19 19 19 19 19 19 19 19 19 19 19 19 19 19 19 18 18 18 18 19 19 19
25 25 27 31 32 30 29 32 33 33 32 33 32 30 28 27 27 25 24 23 21 20 21 21 20 20 19 19 19 19 19 19 19 19 19 19 19 19 19 19 19 19 19 19 18 18 19 19 19
24 27 29 31 32 33 32 33 33 33 33 33 32 29 27 27 26 24 24 23 22 20 21 21 21 20 20 19 19 19 19 19 18 18 18 18 19 19 19 19 19 19 19 19 19 18 18 19 19
26 29 31 32 33 34 34 34 34 34 33 33 31 28 26 26 25 24 24 24 22 20 21 21 21 20 20 19 19 19 19 19 18 18 18 18 18 18 18 18 18 18 18 18 18 18 19 19 19
28 31 31 32 33 35 35 34 33 33 33 33 30 28 26 25 24 24 25 24 23 21 20 21 21 20 20 19 19 19 18 18 18 18 18 18 18 18 18 18 18 18 18 18 18 18 18 18 19
29 30 31 32 33 34 35 34 34 33 33 33 31 28 26 25 24 25 24 25 23 21 20 21 20 20 20 19 19 19 18 18 18 18 18 18 18 18 19 18 18 18 18 18 18 18 18 18 18
29 31 31 33 33 34 35 34 33 32 32 32 31 29 26 25 24 24 24 25 23 21 20 20 20 20 20 19 19 19 19 19 19 19 19 19 19 19 19 19 18 18 18 18 18 18 18 18 18
29 30 30 32 34 35 35 34 33 32 31 31 31 30 27 25 24 24 24 24 23 22 20 20 19 19 19 19 19 19 19 19 19 19 19 19 19 18 18 18 18 18 18 18 18 18 18 18 18
30 30 31 34 35 35 34 34 33 31 30 30 29 28 26 25 24 23 23 23 22 22 21 20 19 19 19 18 19 19 19 19 19 19 19 19 18 18 18 18 18 18 18 18 18 18 18 18 18
31 31 32 34 34 34 34 33 33 32 31 30 28 26 25 25 24 23 23 23 22 22 21 21 20 20 20 19 19 19 19 19 19 18 18 18 18 18 18 18 18 18 18 18 18 18 18 18 17
31 32 33 33 34 33 33 33 34 33 32 30 28 26 25 25 24 24 23 23 22 22 21 21 20 20 20 20 20 20 19 19 19 18 18 18 18 18 18 18 18 18 18 18 18 18 18 18 18
31 32 32 33 33 33 33 33 33 33 30 29 27 25 25 25 24 24 23 23 22 22 21 21 20 20 20 20 20 20 20 20 19 19 19 18 18 18 18 18 18 18 18 18 18 18 18 18 18
32 32 32 32 33 33 33 33 33 32 30 28 26 25 25 25 25 24 24 23 23 22 21 20 20 20 20 20 20 20 20 20 20 19 19 19 18 18 18 18 18 18 18 18 18 18 18 18 18
31 31 32 32 32 32 33 32 33 32 31 29 27 26 26 26 25 25 24 23 23 22 21 21 20 20 20 20 20 19 20 20 20 20 19 19 18 18 18 18 18 18 18 18 18 18 18 18 18
30 30 30 31 33 33 32 31 33 32 31 29 28 27 26 26 26 25 24 23 23 22 21 21 20 20 20 20 20 19 19 20 20 20 19 19 19 18 18 18 18 18 18 18 18 18 18 18 18
29 29 29 31 33 33 32 32 33 33 31 30 28 27 27 26 26 25 24 23 23 23 22 21 20 20 20 20 20 19 19 20 20 19 19 19 19 18 18 18 18 18 18 18 18 18 18 18 18
29 30 30 31 33 33 32 32 33 32 31 29 28 28 27 26 25 25 24 24 23 22 22 21 20 20 20 19 19 19 19 19 19 19 19 19 19 18 18 18 18 18 18 18 18 18 18 18 18
30 30 30 31 33 33 32 31 32 32 31 29 28 26 26 26 25 25 24 24 23 22 21 21 20 20 20 20 19 19 19 19 19 19 19 19 19 18 18 18 18 18 18 18 18 18 18 18 18
29 28 29 30 32 32 31 31 32 32 31 30 29 27 26 25 24 25 24 24 23 22 21 21 21 20 20 20 20 19 19 19 19 19 19 19 19 18 18 18 18 18 18 18 18 18 18 18 17
28 28 28 29 31 31 30 29 30 31 31 30 29 28 26 25 24 24 24 23 23 22 21 21 20 20 20 20 20 19 19 19 19 19 19 19 18 18 18 18 18 18 18 18 18 18 17 17 17
27 29 29 29 29 29 30 28 29 30 30 30 29 28 26 25 23 23 23 23 23 22 21 21 20 20 20 19 19 19 19 18 19 18 18 18 18 18 18 17 17 17 18 18 18 17 17 17 17
28 29 28 28 28 28 28 28 29 31 30 29 28 26 24 22 21 21 21 21 21 21 21 20 20 20 19 19 19 19 18 18 18 18 18 18 17 17 17 17 17 17 17 17 17 17 17 17 17
28 28 27 27 27 25 27 27 27 29 29 27 24 22 20 19 19 19 19 19 20 20 20 19 19 19 19 19 18 18 18 18 18 17 17 17 17 16 16 16 16 17 17 17 17 17 17 17 17
27 26 24 24 25 25 27 27 27 27 26 24 21 18 17 17 17 17 17 18 18 18 18 18 18 18 18 18 18 18 18 17 17 17 17 17 16 16 16 16 16 16 16 16 16 16 16 16 16
26 25 23 22 23 25 27 25 23 23 22 20 18 17 16 16 16 16 16 16 17 17 17 17 17 17 17 17 17 17 17 17 16 16 16 16 16 16 16 15 15 15 16 16 16 16 16 16 16
25 25 25 23 23 22 24 24 22 21 20 19 17 16 15 15 15 15 15 16 16 16 16 16 16 16 16 16 16 16 16 16 16 16 16 16 15 15 15 15 15 15 15 15 15 15 15 15 15
25 24 23 21 20 20 22 24 22 20 18 17 17 16 15 15 15 15 15 15 15 15 15 16 16 16 16 15 15 15 15 16 16 15 15 15 15 15 14 14 14 14 14 14 14 15 15 15 15
22 21 19 18 19 18 19 21 20 19 18 16 16 15 15 15 15 15 15 15 15 15 15 15 15 15 15 15 15 15 15 15 14 14 14 14 14 14 14 14 14 14 14 13 14 14 14 14 14
21 19 17 15 16 16 16 18 19 18 17 16 15 15 15 15 15 15 15 15 15 14 14 14 14 14 14 14 14 14 14 14 14 14 14 13 13 13 13 13 13 13 13 13 13 13 13 13 13
Wind_Speed
14 15 12 8 6 5 7 5 12 13 15 14 11 12 20 17 12 15 15 20 24 21 19 19 17 15 14 13 13 13 12 12 11 11 10 10 10 10 9 9 9 9 9 9 8 7 7 7 7
13 17 10 6 6 1 4 8 14 14 12 9 7 15 20 16 17 16 16 21 24 20 19 18 17 16 14 14 13 14 13 12 12 11 10 10 10 9 9 8 8 8 8 7 6 6 6 6 6
12 16 7 7 7 3 2 7 10 10 7 8 12 17 13 12 16 15 17 22 22 19 20 20 18 16 15 14 14 14 13 12 12 11 11 10 9 8 8 8 7 7 6 6 5 5 6 6 6
9 7 6 9 7 7 6 4 6 8 7 8 13 12 10 9 14 18 18 21 21 20 20 19 18 16 15 15 14 13 12 11 11 10 10 9 8 8 7 7 6 6 5 5 4 4 5 5 6
8 7 10 12 8 5 6 4 3 6 8 9 16 13 12 13 20 18 17 20 20 20 20 19 18 17 16 15 14 14 12 11 10 10 9 8 7 7 6 5 5 4 4 4 3 3 4 4 5
7 9 11 11 8 3 4 4 5 6 9 12 18 16 12 15 16 16 15 16 21 21 19 19 18 17 15 15 14 13 12 11 10 10 10 9 8 6 6 5 4 3 3 3 3 4 4 4 5
10 12 14 15 9 3 3 3 5 6 5 8 15 14 11 15 14 14 13 14 21 20 19 17 17 15 14 14 13 13 12 11 10 9 9 8 7 6 6 6 5 5 5 5 5 6 6 7 7
11 12 17 16 12 6 6 4 5 6 6 6 8 10 13 18 16 15 11 12 17 18 18 16 16 16 14 13 13 12 12 11 10 9 8 8 8 9 10 10 10 8 8 8 8 8 9 10 10
13 13 15 16 11 5 4 6 7 7 9 4 4 8 20 23 19 16 11 12 12 15 15 15 16 15 15 15 15 13 12 11 10 10 10 10 11 13 13 13 13 12 10 10 10 11 12 12 14
12 13 18 15 9 6 5 2 5 7 11 8 10 17 23 22 20 18 15 14 13 14 13 11 16 13 14 13 15 13 13 13 12 12 13 12 13 11 10 13 15 14 12 12 13 14 13 14 14
17 18 18 17 6 5 6 5 7 9 11 14 16 21 22 21 19 18 16 15 14 12 11 10 14 10 10 9 12 10 11 13 13 13 14 11 9 7 8 10 11 11 12 12 13 14 13 14 13
18 18 19 18 9 4 8 12 10 11 7 12 16 19 21 20 19 18 16 15 15 14 12 9 11 7 5 7 8 6 6 9 8 11 11 8 3 2 0 2 6 8 9 8 8 9 11 12 11
18 18 18 16 12 9 10 13 12 8 10 16 14 14 18 19 18 16 16 15 15 14 12 9 10 8 4 1 1 5 3 6 6 10 9 6 3 2 1 1 1 3 4 4 4 5 5 5 6
15 16 18 17 15 13 13 14 14 9 15 20 20 18 18 18 19 17 16 13 14 14 13 11 10 9 6 4 2 2 3 3 5 8 12 9 4 3 2 1 1 4 4 2 3 5 4 4 5
14 16 17 17 16 16 15 16 16 10 14 16 19 19 18 17 17 17 16 12 14 14 13 12 11 11 9 8 7 4 5 6 4 5 10 11 7 4 3 2 3 3 5 4 4 5 4 5 6
12 16 18 18 19 19 19 18 15 14 14 13 13 16 16 14 16 16 16 13 12 14 12 12 13 13 11 8 7 5 5 3 4 5 7 9 8 6 4 3 3 3 5 3 3 4 4 4 5
14 17 19 20 21 20 19 17 15 15 16 15 14 14 16 15 15 15 17 16 12 11 12 11 10 12 12 10 7 5 3 0 2 3 4 6 7 6 4 3 2 3 2 2 5 2 2 4 5
14 16 19 19 18 20 18 14 10 8 10 11 12 13 14 15 15 15 16 17 13 11 11 10 8 9 10 8 6 4 2 1 1 1 2 4 5 5 3 2 3 3 2 2 3 4 4 4 5
17 16 15 14 16 16 16 15 13 11 11 11 10 8 7 8 12 12 13 13 13 11 11 10 10 9 7 7 7 6 5 3 2 2 2 3 4 4 3 3 2 2 3 3 3 3 5 5 5
12 14 16 16 13 8 10 13 14 12 13 9 9 11 11 8 7 10 10 10 12 12 11 10 9 9 9 7 6 4 4 3 4 4 3 4 5 5 5 4 3 3 2 3 3 3 4 5 5
13 15 17 17 16 13 12 15 18 17 13 10 8 6 8 9 7 8 9 9 10 11 11 11 10 9 9 8 6 5 4 4 5 6 5 5 6 5 4 3 3 3 3 3 4 4 6 6 6
15 14 16 17 17 15 15 16 18 20 17 15 12 9 7 5 5 3 3 4 5 8 9 8 8 8 8 7 7 8 7 7 7 5 5 5 5 5 5 4 3 3 3 4 4 5 5 6 6
14 12 12 13 14 17 18 16 17 18 20 18 14 9 6 7 7 7 6 4 2 3 5 7 6 6 6 6 6 6 7 5 4 4 4 5 5 5 5 4 3 3 3 4 4 5 5 5 6
11 12 13 13 14 19 20 20 19 17 10 11 13 13 11 9 10 10 10 9 7 5 4 4 5 4 4 4 4 4 4 3 3 3 3 3 3 4 5 5 4 4 4 5 5 5 6 6 8
12 12 12 15 17 20 20 20 13 3 10 18 18 14 11 9 9 9 9 8 7 7 6 5 5 5 4 4 3 2 1 1 2 2 2 2 2 3 3 4 4 4 4 5 4 5 6 7 8
12 13 12 13 17 17 13 8 4 13 14 15 15 13 11 8 6 7 7 6 6 5 4 4 5 5 5 5 5 4 3 1 2 2 2 1 2 2 2 3 4 4 4 4 3 4 5 6 7
14 14 16 16 20 21 18 11 5 8 10 11 12 11 9 7 5 5 6 5 5 5 4 4 5 5 5 6 5 5 5 5 4 4 3 3 3 2 3 4 4 4 4 4 4 4 5 6 6
11 13 10 9 10 16 19 21 6 10 11 9 9 9 7 6 5 5 4 3 3 3 4 5 5 5 5 4 3 5 5 5 5 5 5 5 4 4 4 4 4 5 4 4 4 4 5 6 5
7 6 7 8 7 8 11 7 5 5 9 11 10 7 4 4 5 4 3 3 2 3 4 4 4 4 4 4 5 5 4 4 5 5 5 4 4 4 4 4 4 5 5 4 4 5 6 6 6
2 3 3 3 7 6 8 5 5 7 8 9 10 8 6 4 4 5 4 4 4 4 4 4 3 3 3 3 3 4 4 3 4 5 4 4 3 4 4 5 5 5 5 5 5 6 6 6 6
Wind_Direction
274 263 252 267 255 250 286 54 66 65 65 58 50 59 64 56 66 99 120 118 113 117 123 122 119 119 123 132 139 140 142 140 137 133 126 115 107 102 101 104 112 119 121 117 111 106 105 111 120
281 279 267 251 248 323 327 57 69 66 73 85 77 76 76 72 93 110 118 117 117 123 131 125 124 122 122 127 135 141 145 146 144 139 132 122 114 108 105 105 112 121 128 129 127 125 125 128 135
274 272 272 257 252 125 341 56 83 94 102 89 72 60 67 90 108 115 124 124 122 126 122 126 130 127 125 126 131 140 145 147 146 140 133 127 123 118 112 111 115 123 132 141 145 149 152 154 158
274 262 245 259 275 129 124 101 117 126 109 98 98 82 77 81 109 121 136 128 125 123 125 132 133 132 131 130 131 135 140 141 140 136 132 130 129 128 124 123 124 127 134 144 153 162 168 173 180
253 265 262 270 275 121 98 106 117 88 92 84 85 97 101 97 109 131 143 132 131 126 128 134 137 137 137 136 137 137 139 140 140 140 140 139 139 138 136 136 137 139 142 148 156 166 179 191 200
255 258 271 277 284 126 124 135 112 80 96 100 106 108 106 116 125 146 140 141 130 127 128 134 139 140 142 144 145 145 145 146 146 146 146 145 147 150 155 160 163 169 178 187 196 203 207 215 220
257 272 275 281 287 234 155 136 141 129 113 109 117 114 128 134 143 139 138 144 128 129 131 141 144 146 147 148 150 152 153 154 154 151 151 154 162 175 187 195 201 208 218 226 230 232 232 233 234
258 275 279 277 269 256 165 153 119 123 96 83 119 130 147 145 147 134 157 133 125 133 138 147 152 154 158 159 159 160 161 163 164 165 171 181 194 204 210 210 210 216 224 232 237 241 242 242 241
249 260 268 273 282 257 145 145 128 104 111 108 41 106 143 146 146 145 158 131 130 135 142 157 153 160 168 167 164 168 172 175 177 183 192 203 216 215 211 219 205 209 221 231 238 242 245 248 247
230 245 253 268 329 356 62 89 148 161 145 148 112 113 136 149 151 157 163 153 154 147 151 164 154 161 173 166 158 175 180 179 195 193 191 210 231 230 201 200 191 205 218 230 237 243 247 248 251
229 243 264 277 284 291 296 254 220 195 185 173 149 142 150 155 158 164 167 163 164 157 156 166 148 162 175 153 164 182 185 168 200 198 188 215 237 208 169 171 185 205 219 229 233 232 238 240 238
237 246 258 271 294 278 268 276 245 215 208 158 145 152 159 164 167 170 171 169 166 165 165 172 140 162 193 162 168 177 176 165 193 169 181 209 222 284 114 150 161 195 215 224 240 229 238 247 247
237 248 263 268 264 264 259 257 260 223 111 108 125 158 171 172 172 173 174 175 168 168 169 167 141 155 185 117 159 181 196 165 177 148 179 237 198 185 70 5 333 266 233 218 242 264 273 274 279
247 243 255 264 259 250 250 256 249 206 142 139 152 174 184 179 177 175 175 178 171 170 170 162 152 156 165 172 247 276 209 155 180 161 173 197 219 143 147 199 255 289 293 239 225 254 259 264 266
265 266 255 249 249 250 251 249 244 204 164 161 164 175 181 181 180 177 174 177 176 171 169 162 167 166 171 186 200 222 242 182 199 171 165 172 201 177 176 208 221 252 276 265 252 274 268 268 274
248 255 257 250 239 237 240 246 232 194 173 171 180 178 178 180 184 177 171 176 181 172 166 169 179 175 177 191 195 216 231 203 166 164 163 172 191 191 192 217 230 233 257 246 242 250 273 281 284
244 240 247 249 235 225 228 242 250 205 184 180 184 181 177 176 189 177 174 178 186 169 160 172 185 173 178 187 189 224 226 217 136 145 150 165 187 203 195 222 251 266 265 264 277 263 254 281 283
245 239 237 243 242 218 227 238 243 194 179 187 187 183 178 178 189 180 179 179 180 165 157 169 186 176 173 174 183 208 229 186 149 133 155 167 191 214 210 213 239 254 275 273 284 309 287 281 286
274 292 290 267 249 220 219 236 232 202 200 194 177 179 174 184 182 181 179 174 169 162 161 173 186 179 170 174 186 194 205 205 206 212 212 209 209 221 224 252 274 269 277 284 281 286 289 280 270
289 282 284 289 280 250 233 246 254 226 212 199 176 166 172 179 186 167 175 173 170 167 169 177 188 182 180 185 186 187 191 203 218 227 221 221 218 224 231 213 232 245 264 285 286 286 276 278 274
266 264 266 272 274 255 240 248 257 255 221 194 185 164 161 158 167 170 173 178 176 176 181 192 191 187 189 188 184 192 187 210 216 217 217 218 221 218 221 226 234 244 245 253 260 261 263 267 273
259 259 262 266 270 264 247 244 237 240 226 205 195 190 172 139 136 142 162 166 172 176 182 183 187 191 190 188 196 201 207 216 221 218 215 209 214 220 223 231 236 245 253 259 261 259 257 261 269
274 297 304 283 274 273 266 261 255 241 225 208 188 165 125 90 77 53 34 35 68 131 155 170 176 184 187 191 203 211 226 232 233 215 216 206 206 218 228 227 236 245 255 264 268 275 270 264 262
282 291 289 279 270 260 257 261 261 264 243 154 118 98 76 60 55 43 32 29 37 44 76 112 131 141 156 175 188 207 231 242 254 233 221 219 223 220 228 234 240 250 254 255 258 264 268 265 266
262 264 266 258 248 251 250 250 263 345 103 120 118 105 89 59 49 45 40 35 38 45 56 88 106 110 119 130 129 134 132 232 258 270 261 255 263 252 252 251 254 258 262 265 264 268 269 270 270
273 267 263 268 270 272 268 268 16 64 75 90 97 100 95 85 65 54 48 43 38 44 55 81 98 102 100 97 87 77 68 55 60 49 13 2 338 321 309 285 280 280 281 285 286 274 272 270 270
280 270 270 272 274 276 274 261 175 116 99 101 102 98 95 93 82 65 52 43 33 34 41 65 86 90 89 92 94 82 65 54 56 55 51 47 32 19 20 345 330 320 314 311 312 299 291 285 281
298 303 288 269 268 264 262 259 237 164 136 117 109 108 112 111 101 87 70 52 37 32 40 58 70 84 92 97 104 99 85 74 66 61 61 51 39 33 12 0 343 328 318 314 315 308 301 302 291
312 326 340 319 281 273 268 266 51 97 129 130 124 117 111 110 103 91 82 64 47 44 45 57 77 85 86 85 78 84 88 94 88 74 62 52 31 359 7 351 335 322 315 331 327 307 298 301 306
336 338 7 315 306 303 293 286 55 87 111 129 133 133 129 108 83 73 58 43 40 34 34 48 64 79 83 82 89 90 80 73 85 86 68 48 31 2 3 351 348 341 358 352 337 329 337 333 334
Height
1497 1495 1495 1497 1493 1490 1486 1467 1460 1462 1466 1471 1472 1472 1481 1487 1492 1506 1509 1511 1511 1513 1517 1520 1523 1526 1528 1531 1534 1537 1539 1541 1543 1544 1546 1547 1548 1549 1550 1551 1552 1553 1554 1555 1556 1558 1559 1560 1561
1497 1497 1499 1496 1488 1499 1490 1467 1468 1470 1473 1475 1475 1477 1485 1492 1498 1504 1509 1512 1513 1515 1518 1521 1524 1527 1530 1533 1535 1538 1540 1543 1545 1546 1547 1549 1550 1551 1552 1553 1554 1555 1556 1557 1558 1559 1559 1560 1561
1498 1497 1498 1486 1480 1491 1489 1471 1470 1473 1475 1475 1479 1484 1491 1498 1502 1506 1511 1513 1515 1517 1519 1522 1525 1528 1530 1533 1536 1539 1541 1544 1546 1548 1549 1550 1552 1553 1554 1555 1556 1556 1557 1558 1558 1559 1560 1560 1561
1500 1499 1494 1484 1478 1472 1474 1471 1470 1471 1473 1475 1480 1491 1499 1502 1504 1508 1512 1515 1517 1519 1520 1523 1526 1528 1531 1534 1537 1539 1542 1545 1547 1549 1550 1552 1553 1554 1555 1556 1557 1558 1558 1559 1559 1560 1560 1560 1560
1503 1497 1488 1481 1471 1465 1466 1469 1470 1470 1474 1477 1483 1495 1502 1506 1507 1510 1513 1516 1518 1520 1521 1524 1527 1529 1532 1534 1537 1540 1542 1545 1547 1549 1551 1552 1554 1555 1556 1557 1558 1558 1559 1560 1560 1560 1560 1560 1560
1501 1492 1491 1485 1472 1463 1465 1469 1471 1475 1476 1480 1488 1497 1505 1508 1510 1512 1515 1518 1519 1520 1522 1525 1527 1530 1532 1535 1537 1540 1543 1545 1547 1549 1551 1552 1554 1555 1556 1557 1558 1559 1559 1560 1560 1560 1560 1560 1560
1501 1492 1489 1479 1474 1467 1465 1468 1471 1476 1478 1480 1486 1496 1505 1509 1512 1514 1516 1519 1520 1521 1523 1526 1528 1531 1533 1535 1538 1540 1543 1545 1547 1549 1551 1552 1554 1555 1556 1557 1557 1558 1558 1559 1559 1559 1559 1559 1559
1498 1492 1487 1477 1472 1468 1464 1468 1472 1477 1480 1484 1486 1493 1502 1507 1511 1514 1517 1520 1521 1522 1524 1526 1529 1531 1534 1536 1538 1540 1543 1545 1547 1549 1550 1552 1553 1555 1555 1556 1556 1557 1557 1557 1558 1558 1558 1558 1558
1496 1496 1492 1477 1468 1464 1463 1468 1474 1479 1484 1487 1488 1489 1496 1504 1510 1513 1517 1520 1522 1524 1525 1528 1529 1531 1534 1536 1539 1541 1543 1545 1547 1548 1550 1551 1552 1553 1554 1554 1555 1556 1556 1556 1556 1556 1556 1556 1556
1492 1493 1484 1470 1465 1464 1466 1470 1474 1480 1484 1489 1491 1494 1498 1503 1508 1512 1515 1518 1522 1525 1526 1529 1530 1532 1535 1538 1539 1541 1543 1544 1546 1548 1549 1551 1552 1554 1554 1554 1555 1555 1555 1555 1555 1555 1555 1554 1554
1486 1485 1476 1469 1468 1470 1471 1472 1474 1477 1480 1485 1490 1495 1498 1503 1507 1511 1514 1518 1521 1524 1527 1530 1531 1533 1536 1538 1539 1541 1543 1544 1546 1548 1549 1551 1553 1555 1555 1554 1554 1554 1554 1554 1554 1554 1554 1553 1553
1481 1479 1476 1472 1469 1471 1474 1473 1471 1473 1476 1480 1487 1493 1497 1502 1506 1509 1513 1517 1520 1523 1526 1529 1530 1532 1536 1539 1540 1542 1544 1544 1547 1548 1549 1551 1552 1554 1554 1554 1554 1553 1553 1553 1553 1553 1553 1552 1553
1478 1477 1475 1472 1471 1473 1474 1473 1471 1472 1475 1480 1489 1495 1498 1500 1504 1508 1512 1515 1518 1521 1524 1527 1529 1531 1534 1536 1539 1542 1544 1545 1546 1547 1548 1550 1551 1552 1552 1552 1552 1553 1553 1552 1552 1552 1552 1552 1551
1474 1474 1475 1472 1470 1471 1471 1471 1470 1471 1474 1480 1487 1494 1497 1499 1502 1506 1510 1513 1516 1519 1522 1525 1527 1529 1531 1534 1536 1539 1542 1544 1545 1545 1546 1547 1549 1549 1549 1550 1550 1550 1551 1550 1550 1550 1550 1549 1549
1475 1473 1471 1469 1469 1470 1470 1471 1466 1468 1471 1477 1484 1489 1493 1497 1500 1503 1507 1511 1514 1517 1520 1523 1524 1526 1529 1532 1535 1537 1539 1542 1543 1544 1544 1544 1546 1546 1547 1547 1547 1547 1548 1548 1548 1548 1548 1548 1547
1476 1477 1478 1468 1466 1466 1470 1473 1462 1465 1468 1473 1478 1483 1488 1493 1498 1501 1504 1508 1512 1515 1518 1521 1523 1525 1527 1530 1532 1536 1538 1540 1541 1542 1542 1542 1543 1543 1543 1544 1544 1544 1545 1545 1545 1546 1546 1545 1545
1478 1481 1478 1467 1457 1459 1462 1466 1458 1459 1463 1470 1475 1479 1484 1490 1494 1498 1501 1505 1509 1512 1515 1518 1522 1524 1525 1528 1530 1533 1536 1537 1538 1539 1540 1540 1540 1540 1541 1541 1541 1541 1542 1542 1543 1543 1543 1543 1543
1477 1470 1468 1463 1451 1453 1458 1460 1458 1458 1462 1468 1472 1476 1481 1485 1489 1494 1498 1502 1506 1510 1512 1516 1519 1522 1524 1526 1528 1530 1533 1534 1535 1536 1537 1537 1537 1538 1538 1538 1538 1538 1539 1539 1539 1540 1541 1541 1540
1467 1467 1465 1455 1446 1449 1457 1460 1458 1459 1463 1466 1470 1474 1476 1481 1485 1490 1495 1499 1504 1507 1510 1513 1516 1519 1521 1523 1525 1527 1529 1531 1532 1533 1534 1534 1534 1535 1535 1535 1536 1536 1536 1536 1536 1537 1537 1537 1537
1472 1475 1471 1459 1449 1450 1457 1460 1457 1458 1461 1464 1468 1472 1475 1481 1482 1486 1492 1497 1501 1504 1507 1510 1513 1516 1518 1520 1522 1524 1526 1527 1529 1530 1530 1530 1531 1531 1532 1531 1532 1532 1532 1533 1533 1533 1534 1534 1534
1477 1477 1473 1468 1456 1453 1461 1468 1464 1457 1458 1463 1467 1472 1476 1480 1483 1487 1490 1495 1499 1501 1504 1507 1510 1512 1515 1517 1519 1521 1522 1523 1524 1525 1526 1526 1527 1527 1527 1528 1528 1528 1529 1529 1529 1529 1530 1530 1530
1477 1466 1465 1465 1467 1467 1463 1477 1464 1456 1455 1458 1464 1470 1475 1479 1483 1487 1489 1492 1496 1498 1501 1504 1506 1508 1511 1513 1515 1517 1518 1519 1521 1522 1522 1522 1522 1522 1523 1524 1524 1524 1525 1525 1525 1525 1526 1526 1526
1470 1464 1466 1466 1469 1472 1465 1471 1462 1448 1451 1453 1460 1468 1475 1480 1482 1485 1488 1490 1493 1496 1498 1500 1502 1505 1507 1509 1511 1513 1515 1516 1518 1518 1518 1518 1518 1518 1519 1520 1520 1520 1521 1521 1521 1522 1522 1522 1522
1469 1471 1472 1472 1474 1484 1472 1473 1468 1451 1445 1451 1463 1472 1479 1482 1483 1486 1488 1490 1492 1494 1496 1498 1499 1501 1504 1506 1508 1510 1512 1513 1514 1515 1515 1515 1515 1515 1515 1516 1516 1516 1517 1517 1517 1517 1517 1517 1517
1473 1483 1493 1493 1488 1481 1463 1465 1462 1452 1449 1455 1465 1474 1480 1484 1486 1488 1490 1491 1492 1494 1495 1496 1498 1499 1501 1503 1505 1507 1508 1509 1510 1511 1512 1512 1512 1512 1512 1512 1512 1512 1512 1512 1512 1512 1512 1512 1512
1476 1481 1498 1507 1494 1475 1460 1467 1473 1466 1466 1469 1474 1479 1483 1487 1489 1491 1491 1492 1493 1495 1496 1496 1497 1498 1500 1501 1503 1504 1506 1507 1508 1508 1509 1509 1509 1509 1509 1509 1508 1508 1508 1507 1507 1507 1507 1508 1507
1480 1479 1474 1484 1486 1489 1475 1466 1473 1472 1475 1479 1482 1486 1489 1491 1492 1492 1492 1492 1494 1495 1496 1496 1497 1498 1499 1500 1502 1503 1504 1505 1506 1506 1507 1507 1507 1507 1507 1506 1506 1505 1505 1504 1504 1503 1504 1504 1503
1477 1478 1480 1490 1502 1500 1481 1468 1472 1475 1478 1483 1484 1490 1494 1494 1493 1493 1493 1494 1495 1496 1496 1496 1497 1498 1499 1500 1502 1502 1503 1504 1504 1505 1505 1505 1505 1505 1505 1504 1503 1503 1502 1501 1501 1500 1500 1500 1500
1486 1491 1497 1500 1497 1503 1498 1483 1476 1475 1478 1484 1487 1491 1493 1494 1494 1494 1494 1495 1496 1496 1497 1497 1497 1498 1499 1500 1501 1502 1503 1503 1504 1504 1504 1504 1504 1504 1503 1503 1502 1501 1501 1500 1499 1498 1497 1497 1497
1485 1494 1503 1516 1513 1510 1509 1495 1478 1478 1479 1483 1487 1489 1493 1494 1494 1494 1495 1496 1497 1497 1497 1497 1498 1498 1499 1500 1501 1502 1503 1503 1504 1503 1503 1503 1503 1503 1503 1502 1501 1500 1499 1498 1497 1496 1495 1494 1494